Showing default

JILIN-01 GAOFEN 2A, 44777

Orbit data source: Space-Track

JILIN-01 GAOFEN 2A, 44777 is a payload satellite owned by Changguang WJ (CN) in SSO that was launched on Wed, 13 Nov 2019 UTC via a KUAIZHOU-1A launch vehicle from the Jiuquan Satellite Launch Center, China (JSC). Payload-class satellites include a variety of spacecraft equipped with specific instruments for various scientific and technological missions. These include communications satellites like Starlink; space stations such as the ISS; scientific satellites like the Hubble; Earth observation satellites from companies like Planet Labs, Umbra, and HawkEye 360; GPS; miniature CubeSats for education and research; and military/defense satellites.

Loading next visibility...
Identifier
44777, 2019-075A
Orbit
SSO
Last TLE update
8 hours ago
Origin
Manufacturer
Changguang WJ
Mission
Operational Commercial Imaging
Bus & Motor
JL-1, Unknown motor
Mass
230 kg wet, 230 kg dry
Launch date (UTC)
2019-11-13 (5 years ago)
Launch vehicle
KUAIZHOU-1A
Launch site
Jiuquan Satellite Launch Center, China (JSC)
Object type
Payload
Rocket body
Debris
Shape & HBR
Box + 2 Pan, 1.5 m
Radar Cross Section
2.000 m², Large (>1 m²)

Expand to show TLE details & history

TLE from 8 hours ago
0 JILIN-01 GAOFEN 2A
1 44777U 19075A   25128.93200849  .00012103  00000-0  45375-3 0  9998
2 44777  97.5336 201.3027 0009920  85.4506 274.7865 15.27354894302953
Epoch: 2025-05-08T22:22Z
Definitive object data (Epoch: 2025-05-08T22:22:05.533Z)
Latitude
-0.0001°
Longitude
-1.21576°
Altitude
486.258 km
Speed
7.622 km/s
True Right ascension
13h 25m 12s
True Declination
0° 00' 00"
Sunlit
Object was in full shadow at TLE epoch
Visualization TLE readout
Latitude
53.12807°
Longitude
-170.76309°
Altitude
487.373 km
Speed
7.629 km/s
Apparent Right ascension
02h 33m 27s
Apparent Declination
8° 51' 13"
Sunlit
Object is in daylight
Visualization observer readout
Local Sidereal Time
14:55:42
Azimuth
7.288° NNE
Elevation
-40.959°
Doppler factor
1
Orbital elements
Apogee altitude
487.489 km
Perigee altitude
473.881 km
Semi-major axis
6,858.822 km
Eccentricity
0.000992
Inclination
97.5336°
RAAN
201.3027°
Arg. of periapsis
85.4506°
True anomaly
274.67321°
Mean anomaly
274.7865°
Eccentric anomaly
274.72986°
Mean motion
3.82093 °/min
BSTAR
0.00045375
Orbital period
94.22 mins
Loading maneuver chart data...
Loading SW <> Apogee altitude chart data...
Loading historical data...
Loading historical data...
Loading historical data...
Loading historical data...
Loading historical data...
Loading historical data...
Loading historical data...
Other satellites on launch #75 in the year 2019 (2019-11-13 UTC)

JILIN-01 GAOFEN 2A Visibility forecast

Observer location: undefined°, undefined°

Span
Click to sort rows by Start time (UTC) header in descending order
Start Az.
Max El. time (UTC)
Max El. Az.
Max El.
End time (UTC)
End Az.
6 mins2025-05-09 17:47:48.888Z5.976° NNE2025-05-09 17:50:48.888Z254.085° W42.806°2025-05-09 17:53:48.888Z200.705° SSW
4 mins2025-05-10 04:23:48.888Z123.842° SE2025-05-10 04:25:48.888Z56.666° ENE30.11°2025-05-10 04:27:48.888Z11.968° NNE
|